Theta_e
294 295 295 296 296 296 296 296 295 295 295 296 297 297 298 299 299 297 295 299 294 287 289 288 290 287 286 287 285 285 285 285 284 284 285 285 283 285 284 283 283 285 286 286 286 284 282 283 284 288 285 280 281 282
294 294 294 295 295 296 296 295 295 295 295 295 296 297 297 298 299 298 292 298 299 290 286 291 292 291 293 293 288 285 285 283 286 285 285 284 281 281 282 280 283 283 284 286 287 285 281 282 282 283 283 282 282 284
293 293 293 294 294 295 295 295 295 294 294 295 295 296 296 297 298 297 293 294 292 286 286 285 284 290 292 292 294 286 286 288 286 287 285 282 281 283 279 280 280 282 283 282 282 280 281 283 285 285 285 283 282 284
291 292 293 293 293 294 294 294 294 294 294 294 295 295 296 296 297 298 292 294 292 286 282 282 285 287 291 291 291 291 289 288 287 286 285 281 280 283 281 281 281 282 283 280 278 280 281 284 285 286 287 285 282 281
291 291 292 292 293 293 293 293 293 293 293 293 294 294 295 296 296 296 294 295 295 288 277 276 278 282 286 289 289 290 289 285 285 283 283 281 281 280 278 279 276 281 281 281 281 283 284 285 287 288 286 285 282 281
290 291 292 292 292 292 292 292 292 293 293 293 293 293 294 295 296 292 285 293 296 294 280 273 282 279 280 287 288 286 286 285 285 284 281 281 281 282 278 277 281 281 284 288 285 287 286 284 285 286 285 282 281 281
290 290 291 291 291 291 291 292 292 292 292 293 293 293 294 295 292 286 285 291 297 294 282 275 275 282 282 282 282 282 284 284 284 282 281 280 280 282 279 277 281 281 281 281 283 284 282 280 281 283 283 282 281 279
289 290 290 291 291 290 290 291 292 292 292 292 293 293 294 294 293 287 292 295 296 286 284 277 272 275 282 278 273 279 279 281 280 279 278 277 279 280 276 279 277 276 279 278 278 279 279 279 279 278 278 277 277 277
288 289 289 290 290 290 291 291 291 291 292 292 292 293 289 287 284 286 296 297 295 288 281 273 271 271 281 279 275 272 277 269 277 276 277 277 271 270 272 274 271 269 271 272 275 276 276 276 276 275 275 274 274 274
288 288 289 289 289 290 291 291 291 291 291 291 288 283 278 285 294 294 290 285 284 284 284 275 266 273 280 277 269 269 270 266 263 269 276 268 264 270 267 266 266 266 266 267 271 271 271 271 273 273 271 272 273 272
287 288 288 289 289 290 290 290 290 291 289 285 280 280 286 293 288 285 281 278 280 278 281 270 269 275 279 267 267 276 270 263 264 267 267 259 261 267 265 263 263 263 264 263 265 267 267 267 267 269 267 266 265 265
287 288 288 289 289 289 290 290 290 286 280 283 285 286 285 283 282 278 275 279 278 275 274 269 269 274 273 275 270 269 265 270 261 262 264 259 265 260 259 259 259 259 258 259 261 261 262 261 261 262 261 261 260 260
287 288 288 288 288 289 290 290 290 290 289 284 279 279 278 277 272 272 266 270 272 273 275 271 271 274 273 276 269 275 264 269 268 261 263 260 260 256 255 255 255 255 256 256 257 258 258 256 256 256 256 256 256 256
288 288 287 287 288 289 289 290 290 289 285 277 274 272 269 271 273 270 264 264 274 274 269 276 273 274 270 270 273 267 269 268 259 261 261 255 254 251 252 252 250 251 252 254 253 254 254 254 253 253 252 253 253 253
288 287 285 285 286 287 288 289 289 288 282 274 269 270 263 262 267 267 268 265 275 279 278 275 272 275 270 273 272 269 268 264 262 261 253 254 253 252 251 250 248 250 251 251 250 251 252 252 252 251 249 249 251 253
286 284 281 285 285 287 287 290 283 276 268 262 258 267 264 258 263 264 269 272 268 278 279 277 275 272 272 271 269 267 265 261 255 249 252 253 251 250 248 247 248 249 250 251 250 250 252 252 250 247 249 250 250 251
281 272 282 284 284 282 282 276 272 267 265 260 253 258 258 255 257 259 260 261 264 270 273 275 271 270 273 265 258 254 249 250 251 251 253 253 251 251 250 248 248 249 249 249 249 250 250 250 250 252 251 248 248 247
270 275 282 283 280 277 270 270 268 264 258 259 256 255 255 255 253 255 256 259 261 263 265 261 263 255 253 252 250 250 253 253 254 253 253 252 250 251 252 250 249 250 249 249 249 249 250 251 251 249 246 246 248 248
275 277 280 281 277 270 266 264 266 259 259 258 260 261 258 256 256 255 255 257 257 256 255 252 247 247 246 248 248 251 251 252 253 253 252 252 252 252 252 253 253 252 252 251 252 251 250 250 249 250 249 251 251 250
278 278 278 277 275 267 263 261 265 260 258 259 258 257 256 255 255 254 252 253 253 250 246 245 244 245 247 249 250 251 252 253 253 252 252 253 254 253 252 253 253 252 253 251 253 252 249 250 251 251 249 249 249 248
270 269 271 268 265 263 260 260 259 261 257 256 257 258 256 255 252 251 250 252 248 247 245 247 247 249 251 250 251 251 251 252 251 251 251 252 253 253 253 253 253 252 251 250 249 250 250 248 249 249 247 246 246 247
262 270 259 262 263 261 259 260 260 261 259 256 256 256 252 251 250 249 252 247 246 247 248 248 249 249 250 249 249 248 249 252 252 253 253 253 251 250 250 251 251 249 249 247 247 246 247 247 247 246 246 246 246 246
263 262 256 254 255 256 254 261 258 258 256 255 255 252 251 250 251 254 247 248 248 250 250 250 250 251 251 250 250 251 252 251 251 251 252 252 251 251 251 250 250 250 249 250 249 248 246 248 247 247 246 246 245 246
259 250 247 246 247 246 254 251 255 255 255 253 251 248 249 250 253 248 244 246 248 250 250 250 251 250 250 250 249 249 250 251 251 251 252 251 250 249 250 250 250 250 250 250 249 249 249 247 248 246 245 242 241 242
246 242 243 239 244 245 248 247 247 250 249 251 249 248 248 251 246 245 244 245 247 248 248 250 250 250 248 248 249 249 251 251 250 249 249 249 247 248 249 249 249 249 249 248 247 247 248 247 248 246 245 243 246 244
239 242 240 240 241 241 244 244 244 244 246 247 248 250 249 247 244 242 244 246 247 248 248 248 248 248 247 247 246 246 246 248 246 247 245 245 245 245 245 245 245 247 248 245 244 243 244 244 242 243 243 243 245 241
239 240 245 247 244 243 243 244 245 244 242 242 243 246 246 242 241 244 248 250 249 248 249 248 246 243 242 242 244 243 243 244 244 244 244 244 244 241 241 240 240 242 241 240 239 238 239 240 241 242 243 241 240 240
245 245 241 244 243 242 239 241 241 240 241 243 245 242 242 242 242 247 249 251 250 248 246 243 241 240 240 241 239 241 241 241 245 247 247 245 240 239 238 239 240 251 243 242 243 244 241 241 243 244 242 243 245 244
246 247 245 242 241 241 241 240 241 244 245 243 243 242 242 245 245 247 248 248 245 245 242 241 242 239 240 239 239 236 236 238 240 238 237 237 237 241 239 240 239 241 240 237 246 251 250 250 249 247 244 243 244 244
244 245 242 241 240 240 243 243 242 245 246 244 246 246 245 245 246 248 245 243 242 240 239 238 236 237 236 237 236 238 234 233 237 239 237 237 238 239 238 239 240 240 240 236 243 243 247 244 244 239 240 241 241 242
244 244 242 242 242 243 244 245 243 242 241 240 239 240 239 241 243 242 242 237 235 234 237 236 235 231 235 235 234 234 238 236 234 236 235 237 238 238 239 241 242 240 238 239 241 240 242 242 241 240 240 239 240 241
240 237 241 240 241 242 240 237 236 236 235 237 236 234 236 237 237 238 240 236 236 237 238 234 234 238 236 235 235 236 241 240 239 241 239 240 240 241 242 243 242 240 241 244 242 241 241 240 240 240 241 240 240 240
234 234 233 235 237 237 236 236 237 236 236 234 236 233 233 237 240 242 242 238 240 239 238 237 237 237 236 237 238 238 241 239 239 247 250 249 249 249 249 247 244 244 244 243 243 243 241 241 240 240 240 240 240 240
Wind_Speed
21 22 22 23 24 23 23 20 19 17 18 18 19 19 18 21 17 9 4 6 8 5 4 7 6 6 4 3 5 4 4 3 2 7 6 5 4 4 3 1 9 15 11 16 14 16 22 6 3 16 4 3 1 1
21 22 20 22 22 22 22 20 17 18 17 18 18 19 19 20 19 11 5 6 6 3 3 2 1 2 2 5 4 4 0 4 4 4 3 4 3 2 4 3 1 5 3 4 7 4 2 2 2 2 2 3 4 3
20 21 19 20 20 20 20 19 18 17 17 18 18 20 20 19 17 16 5 3 1 2 2 3 5 5 1 3 1 4 2 3 2 2 3 0 4 4 5 5 3 3 2 1 1 2 2 3 3 1 4 5 5 5
21 20 19 19 18 17 17 17 18 18 17 16 18 19 19 21 19 18 4 4 4 1 3 2 1 3 2 3 3 0 3 3 3 2 1 2 2 3 4 3 3 2 4 4 1 3 2 6 5 5 3 4 5 6
20 19 19 18 17 16 17 17 17 18 17 17 18 18 18 19 18 11 3 6 7 2 5 3 0 1 2 4 3 3 5 4 2 3 2 2 2 3 1 2 2 6 7 5 4 6 3 4 11 7 4 3 3 3
16 18 18 17 17 17 17 18 17 18 18 19 19 20 17 19 14 3 3 6 12 5 3 4 1 1 1 5 6 5 3 1 1 3 2 1 1 2 3 2 2 4 3 5 6 12 4 2 2 6 5 5 3 4
15 16 17 17 16 16 17 17 17 17 17 18 21 21 19 19 7 5 4 1 15 7 3 4 3 2 3 3 1 2 2 1 1 2 2 2 2 2 2 2 1 5 3 4 3 7 3 3 3 7 6 4 3 4
14 15 17 17 18 16 16 16 16 15 14 14 14 17 18 18 14 9 12 11 8 3 4 5 3 3 4 2 2 1 3 1 3 2 1 3 1 1 2 1 6 8 7 8 8 7 4 7 7 7 4 3 5 5
11 12 13 16 17 14 15 15 13 11 10 9 11 12 5 5 4 6 10 13 8 3 4 4 9 7 5 3 2 3 2 3 2 2 1 3 1 3 3 5 7 11 7 6 7 7 9 11 8 7 6 7 6 3
11 11 13 14 15 12 11 15 12 9 6 6 0 1 4 7 9 12 5 8 8 5 3 3 2 6 6 3 1 4 2 3 2 4 3 3 2 6 7 8 8 8 9 11 1 5 6 7 8 7 7 6 5 4
12 11 12 11 12 12 14 12 12 11 3 1 3 5 2 11 5 5 6 6 4 6 5 4 5 10 2 5 4 1 4 1 4 6 6 1 3 4 6 7 9 9 9 9 6 6 6 5 4 4 5 7 6 6
12 13 11 10 11 13 15 15 13 5 4 5 2 3 4 4 4 6 6 4 4 5 2 6 5 5 2 5 5 2 4 2 4 2 5 3 2 5 6 6 8 8 7 6 7 8 9 10 7 6 6 6 6 5
10 8 10 8 6 9 14 17 17 13 7 2 1 5 2 2 3 3 5 3 2 4 6 5 5 5 3 3 4 3 5 5 5 4 5 2 4 4 4 4 4 8 7 7 9 8 9 9 10 7 6 5 5 7
9 10 9 8 5 7 10 12 14 10 3 3 4 6 5 4 3 2 3 3 2 5 4 8 5 5 3 4 4 6 3 5 4 3 7 2 2 2 3 4 3 5 6 7 7 7 8 8 8 7 7 5 5 8
11 8 5 8 11 10 9 13 13 5 3 3 2 5 2 2 3 2 3 1 2 6 11 3 4 4 2 5 3 5 4 4 6 5 2 3 3 2 3 4 4 4 4 4 3 4 7 6 7 7 6 4 4 7
5 7 5 14 12 9 15 8 2 3 4 4 7 2 3 4 3 4 4 3 8 2 3 2 4 4 3 6 5 2 9 7 3 2 2 4 3 2 2 2 3 2 3 5 5 4 6 7 6 4 5 7 7 7
10 2 17 16 5 9 15 4 4 7 5 5 2 3 2 2 2 3 7 6 7 3 2 2 4 3 5 5 5 5 3 0 4 4 5 6 3 2 2 3 5 5 6 6 4 5 5 5 6 8 11 6 6 5
3 5 13 7 3 5 4 7 5 6 7 3 4 3 5 5 3 4 7 9 6 5 5 4 5 9 5 5 3 2 4 5 6 6 5 4 3 3 3 4 4 5 6 6 6 5 6 7 7 3 3 2 4 4
7 10 18 12 7 6 5 6 4 6 4 2 4 5 5 5 7 7 8 8 6 6 6 7 10 6 4 3 3 4 3 3 3 6 5 3 3 4 5 6 6 7 7 4 7 6 5 5 3 3 2 3 3 2
5 21 20 18 8 5 6 4 3 5 4 3 4 4 6 5 5 6 11 10 8 7 11 10 5 2 3 3 3 2 4 3 2 6 4 3 4 6 5 4 4 4 5 6 6 6 4 4 4 4 3 3 3 2
11 10 15 8 5 8 6 4 5 3 3 5 2 2 5 4 6 8 7 8 9 9 6 4 3 3 3 2 3 3 4 4 3 1 2 5 4 5 5 6 7 6 5 4 4 4 5 3 2 2 2 2 2 1
4 14 5 10 6 5 6 6 3 2 4 3 3 3 5 4 5 7 4 12 8 4 3 2 3 3 2 4 2 2 2 2 3 6 8 6 4 5 5 4 5 5 5 2 2 2 2 2 2 2 3 3 3 3
8 8 7 10 8 8 3 5 5 6 4 3 3 5 5 4 4 4 8 6 4 4 4 2 3 2 4 3 4 7 6 5 6 6 6 6 6 5 6 6 4 4 4 5 3 3 3 5 4 3 3 3 3 4
13 11 10 8 9 4 4 6 5 4 4 4 5 5 5 3 3 7 7 3 3 5 5 6 3 1 2 6 7 6 5 3 6 7 5 5 6 5 5 5 5 5 4 2 3 3 4 4 5 4 4 3 3 3
15 14 9 11 7 8 8 6 7 5 5 5 5 5 4 2 6 6 4 2 4 5 5 4 4 4 4 4 4 6 8 6 5 6 5 4 2 2 4 4 5 5 4 3 4 4 3 3 4 4 4 3 5 6
14 7 8 8 7 6 5 5 6 7 5 5 6 3 3 4 7 6 2 1 1 2 3 4 3 2 4 4 3 4 4 4 3 5 3 3 3 3 3 3 2 2 4 2 2 2 4 4 3 6 5 6 6 4
10 6 4 3 2 3 4 4 4 6 6 7 4 3 3 7 6 3 2 1 1 2 3 3 2 2 1 2 2 2 2 3 3 3 3 4 4 3 4 3 0 4 3 3 2 0 3 4 4 5 5 3 4 4
4 5 7 8 5 5 5 5 6 7 4 4 2 7 5 4 4 2 2 3 3 4 3 3 2 1 2 1 1 3 3 4 4 5 5 3 3 2 3 1 2 6 3 3 3 4 3 4 5 5 4 6 9 5
5 6 2 7 5 6 7 5 6 3 2 1 2 4 4 3 1 2 2 3 3 4 3 3 4 3 2 2 3 3 3 3 5 4 2 2 4 4 2 3 3 4 3 3 8 8 8 7 7 8 6 6 9 8
8 6 4 5 6 8 5 3 3 6 4 1 3 7 5 3 3 2 3 3 2 2 2 1 1 2 1 3 3 5 2 1 3 4 4 3 5 4 3 4 5 5 3 3 5 5 8 5 7 4 5 6 6 7
4 5 6 6 5 2 3 4 3 4 5 6 5 6 2 1 3 2 2 2 2 1 2 2 3 0 2 2 2 2 4 3 3 4 4 3 4 5 5 6 5 4 3 4 5 4 5 6 6 7 9 10 11 10
5 5 3 4 2 4 5 5 2 4 5 5 4 3 4 4 2 4 2 3 3 3 3 3 2 4 4 3 2 3 6 4 4 5 6 4 5 6 7 6 5 5 5 6 5 4 6 7 8 9 10 13 12 13
4 4 3 3 5 6 5 4 6 3 4 4 3 1 2 3 2 5 2 3 4 4 4 4 4 3 4 5 5 4 5 5 7 10 10 12 13 12 8 4 4 5 6 5 6 7 9 10 11 12 12 13 14 14
Wind_Direction
264 265 265 261 257 249 249 246 249 250 255 257 259 261 256 250 250 258 278 217 236 191 189 197 190 158 133 190 185 147 115 187 142 199 190 182 201 196 258 158 175 184 200 220 226 233 241 150 65 191 285 354 258 345
266 262 267 263 259 251 244 243 245 246 248 251 254 257 256 254 248 252 263 229 219 207 169 140 180 326 242 178 151 196 70 166 175 184 221 138 157 163 158 240 106 215 241 203 209 214 6 337 7 23 38 88 359 45
262 267 260 260 256 251 240 238 239 249 255 254 253 253 256 255 262 241 245 223 241 144 136 151 199 194 142 234 222 168 223 176 189 149 179 185 143 153 175 220 149 213 237 79 187 24 331 336 335 324 39 65 21 18
261 257 258 253 251 246 236 236 239 243 247 252 257 254 251 254 254 250 204 181 225 170 182 198 20 145 139 172 210 172 119 86 79 57 160 176 174 178 192 143 166 153 138 132 267 263 275 271 243 248 177 124 78 42
263 254 249 245 243 241 237 235 244 249 250 255 257 251 250 252 254 255 209 193 223 232 168 183 11 281 185 174 191 201 161 143 158 162 174 176 104 124 28 57 248 184 169 170 200 178 211 214 210 201 165 134 121 108
262 254 246 241 239 238 244 245 243 248 249 254 258 255 247 247 245 231 260 201 197 217 125 131 99 27 215 177 145 143 147 156 150 136 142 116 111 157 159 190 257 172 211 178 178 190 166 13 246 127 139 140 122 122
255 253 244 239 245 247 244 249 249 245 252 258 256 248 241 244 219 223 201 95 195 163 146 118 140 182 108 117 118 100 60 70 74 114 123 132 158 172 100 174 267 178 180 353 59 101 353 340 61 122 122 138 98 80
256 248 241 237 236 245 255 252 239 242 255 254 259 245 241 246 243 242 239 252 228 136 170 139 116 122 180 154 109 213 115 74 27 111 112 125 88 61 197 131 40 23 85 49 26 24 85 91 56 55 68 79 79 65
246 254 254 251 252 240 245 232 226 231 239 259 257 251 250 220 198 214 223 193 200 216 164 110 148 168 164 135 121 16 123 71 314 127 231 96 220 208 25 39 54 23 26 338 326 41 51 68 60 39 43 37 75 49
250 260 257 255 246 233 223 228 218 217 235 264 216 190 231 200 153 149 193 193 194 191 175 123 92 150 158 135 210 88 75 156 127 247 89 96 195 93 57 46 43 22 11 351 85 45 20 50 43 42 49 33 42 46
243 253 252 241 237 225 219 225 222 226 62 81 209 220 275 175 147 183 218 188 174 168 151 169 152 137 235 115 155 218 155 195 108 249 126 303 291 112 44 44 27 20 16 26 14 49 43 52 32 30 53 39 37 40
244 248 249 249 247 243 232 226 219 190 174 190 281 286 235 169 172 202 197 159 184 169 111 124 175 134 156 119 101 272 129 111 187 151 87 250 139 51 26 20 25 18 18 39 30 48 45 45 21 50 45 36 33 30
239 262 259 254 259 245 236 220 220 202 166 37 20 254 153 209 237 193 187 130 150 162 168 164 134 125 75 72 77 126 107 182 111 77 210 197 100 46 7 360 20 14 22 40 44 49 58 54 40 38 45 24 37 48
135 100 95 85 37 312 228 226 225 226 181 173 179 257 173 192 184 157 250 224 152 129 125 144 120 120 142 83 140 115 177 98 70 150 225 143 96 334 11 15 46 14 26 42 43 55 65 66 57 40 36 29 55 62
162 165 117 29 358 316 297 268 246 224 179 181 120 248 225 339 74 216 222 335 339 151 134 120 65 91 118 112 103 121 121 177 189 208 118 112 96 69 29 13 14 26 31 45 27 61 75 72 74 66 21 22 62 80
118 84 28 350 335 349 323 249 138 101 54 81 28 128 337 56 328 13 349 48 14 317 72 83 127 119 120 125 134 122 143 193 140 96 69 97 73 51 51 29 27 36 53 64 55 60 77 70 72 68 43 38 39 56
78 41 338 327 337 57 26 78 72 56 69 61 74 69 88 108 330 9 354 353 333 296 113 116 97 106 104 89 82 26 85 123 112 89 72 70 65 38 70 59 50 49 55 51 46 49 62 60 61 65 63 17 34 26
47 289 344 355 94 67 36 27 74 67 63 351 80 60 82 36 351 12 341 345 347 4 29 52 26 50 46 103 117 50 98 87 76 80 76 65 36 36 60 79 66 64 63 57 54 53 50 53 57 42 83 70 71 42
56 27 22 25 75 82 61 33 38 89 64 39 74 79 86 88 70 25 359 354 50 26 63 44 55 44 59 44 62 73 53 54 98 88 76 56 64 75 78 72 74 73 75 64 73 73 65 48 59 34 22 42 66 19
89 28 15 29 46 75 68 26 17 74 70 76 47 34 74 65 21 28 27 15 30 49 45 42 38 15 24 31 26 46 50 359 75 106 97 84 75 77 62 59 62 76 70 54 65 58 51 54 24 19 19 34 66 22
33 347 8 41 51 56 75 15 52 54 95 72 347 52 83 69 34 18 31 2 57 35 61 34 4 8 36 27 28 31 46 30 51 122 159 104 71 64 62 60 59 57 64 46 58 46 43 53 338 355 32 353 328 307
339 15 47 9 70 59 67 14 46 73 72 105 80 48 57 48 35 27 36 35 61 21 31 353 335 345 32 48 6 5 276 93 72 85 75 85 79 60 48 43 75 73 62 42 54 66 20 343 353 5 18 324 346 348
16 31 46 12 64 41 0 343 47 17 53 57 47 52 46 59 49 46 72 47 59 9 347 318 299 338 72 49 56 53 45 72 73 71 77 76 77 73 71 57 43 65 62 40 35 41 29 0 4 13 349 4 7 5
32 46 34 40 23 26 336 30 12 30 40 48 52 62 47 51 76 66 68 50 5 351 3 8 11 17 31 55 53 45 25 52 73 62 52 81 85 69 73 76 63 52 38 17 18 27 27 12 9 6 4 11 357 354
65 5 43 5 354 17 27 25 13 19 52 27 72 61 50 38 70 66 65 31 1 1 355 359 43 35 67 68 57 47 32 41 70 80 27 35 85 82 86 77 71 49 15 13 11 5 355 350 6 0 351 352 340 335
67 359 46 3 360 26 2 39 26 17 9 54 45 72 56 72 73 72 82 107 357 350 354 5 11 63 50 24 40 24 4 354 59 78 13 37 61 99 79 69 30 20 9 4 346 334 339 332 333 342 332 325 321 326
47 348 356 46 4 349 51 43 22 42 46 28 359 19 55 69 78 95 132 47 110 43 37 25 15 74 84 327 323 343 329 7 94 145 133 91 80 96 116 120 264 255 314 340 350 242 278 304 304 304 296 290 273 260
52 42 21 352 43 21 65 40 29 21 2 346 327 37 65 63 104 115 91 94 104 96 74 32 23 55 116 41 318 340 5 10 67 83 89 55 51 68 78 44 288 333 331 300 282 275 266 265 285 284 283 293 305 296
24 347 13 17 29 48 40 30 7 333 337 315 64 83 95 58 2 80 67 89 67 75 56 22 8 348 15 9 24 20 23 47 97 85 85 288 330 298 346 341 323 308 293 307 309 321 302 297 325 321 311 295 298 296
350 357 63 26 54 48 345 18 322 345 42 113 92 102 67 43 8 18 69 51 76 129 189 178 254 44 65 44 341 347 335 67 104 126 158 224 232 259 299 296 292 285 282 290 292 295 305 321 305 314 307 301 297 297
317 9 44 34 72 342 308 302 334 30 32 43 21 76 110 162 327 336 103 149 141 109 98 357 335 249 104 34 90 29 331 287 213 222 224 245 263 268 272 273 266 260 262 270 275 274 281 295 286 285 289 287 288 286
18 31 59 59 5 326 10 36 10 57 352 41 349 23 9 44 24 287 239 109 53 56 239 173 174 277 216 224 225 230 231 264 261 247 254 245 249 255 256 256 251 243 248 261 251 254 273 272 280 281 283 283 281 281
30 26 44 47 12 9 344 23 24 9 32 30 345 240 204 158 163 255 282 186 171 187 215 230 233 247 242 240 235 249 240 233 249 264 274 282 289 286 280 258 247 239 251 250 260 271 275 274 277 279 279 278 280 281